Showing default

KUIPER-00053, 64513

Orbit data source: Space-Track

KUIPER-00053, 64513 is a payload satellite owned by Kuiper Systems (US) in LEO that was launched on Mon, 23 Jun 2025 UTC via an ATLAS V 551 launch vehicle from the Air Force Eastern Test Range (AFETR). Payload-class satellites include a variety of spacecraft equipped with specific instruments for various scientific and technological missions. These include communications satellites like Starlink; space stations such as the ISS; scientific satellites like the Hubble; Earth observation satellites from companies like Planet Labs, Umbra, and HawkEye 360; GPS; miniature CubeSats for education and research; and military/defense satellites.

Loading next visibility...
Identifier
64513, 2025-134P
Orbit
LEO
Country
Flag of USUS
Related business
Manufacturer
Kuiper Systems
Mission
Operational Commercial Communications
Bus & Motor
KUIPER, Unknown motor
Mass
~490 kg wet, ~490 kg dry
Launch date (UTC)
2025-06-23 (1 year ago)
Launch vehicle
ATLAS V 551
Launch site
Air Force Eastern Test Range (AFETR)
Object type
Payload
Rocket body
Debris
Shape & HBR
Box + 2 Pan, 3.4 m
Radar Cross Section
2.326 m², Large (>1 m²)

Expand to show TLE details & history
Last TLE update: 1 day ago

TLE from 1 day ago
0 KUIPER-00053
1 64513U 25134P   26170.59858054  .00001558  00000-0  22440-3 0  9998
2 64513  51.9002 131.6375 0000816 197.8530 162.2404 14.81644884 55313
Epoch: 2026-06-19T14:21Z
TLE epoch observation values (Epoch: 2026-06-19T14:21:57.358Z)
Latitude
-0.00007°
Longitude
8.3232°
Altitude
625.428 km
Speed
7.547 km/s
True Right ascension
08h 46m 32s
True Declination
0° 00' 00"
Sunlit
Object was in daylight at epoch
Visualization orbit readout
Latitude
Unknown
Longitude
Unknown
Altitude
Unknown
Speed
Unknown
Apparent Right ascension
Unknown
Apparent Declination
Unknown
Sunlit
N/A
Visualization observer readout
Local Sidereal Time
07:17:25
Azimuth
Unknown
Elevation
Unknown
Doppler factor
Unknown
Orbital elements
Apogee altitude
625.16 km
Perigee altitude
624.017 km
Semi-major axis
7,002.725 km
Eccentricity
0.00008
Inclination
51.9002°
RAAN
131.6375°
Arg. of periapsis
197.853°
True anomaly
162.24325°
Mean anomaly
162.2404°
Eccentric anomaly
162.24183°
Mean motion
3.70376 °/min
Orbital period
97.2 mins
BSTAR
0.0002244
Loading maneuver chart data...
Computing Atmospheric mass density...
Loading historical data...
Loading historical data...
Loading historical data...
Loading historical data...
Loading historical data...
Loading historical data...
Loading historical data...

Documentation

Showing up to 5 results
|